Вернуться в каталог

STARLINK-36742

АктивенСвязьVLEO
NORAD 67907·PAYLOAD·🇺🇸 United States

Запущен Feb 22, 2026 с Vandenberg Space Force Base

Loading…

Ближайшие Пролёты (ближайшие 24 часа)

TLE

СвежийSource: CelesTrak SupGP

Эпоха: Sep 15, 2026, 03:49 UTC

1 67907C 26036D   26258.15951389 -.00023136  00000+0 -83840-3 0  2580
2 67907  42.9996 255.5202 0001346 268.5842 173.5197 15.27573946    13

Отслеживайте STARLINK-36742 в реальном времени с AllMySat

Download on the App Store